TimeCDT,TemperatureF,Dew PointF,Humidity,Sea Level PressureIn,VisibilityMPH,Wind Direction,Wind SpeedMPH,Gust SpeedMPH,PrecipitationIn,Events,Conditions,WindDirDegrees,DateUTC
12:15 AM,36.7,33.6,89,30.34,10.0,SSE,3.5,-,N/A,,Overcast,160,2012-10-06 05:15:00
12:35 AM,36.9,33.6,88,30.34,10.0,SSE,4.6,-,N/A,,Overcast,150,2012-10-06 05:35:00
12:55 AM,37.0,33.3,86,30.34,10.0,SSE,3.5,-,N/A,,Overcast,150,2012-10-06 05:55:00
1:15 AM,37.0,33.1,86,30.33,10.0,Calm,Calm,-,N/A,,Overcast,0,2012-10-06 06:15:00
1:35 AM,37.2,32.9,84,30.33,10.0,South,3.5,-,N/A,,Overcast,170,2012-10-06 06:35:00
1:55 AM,37.4,33.1,84,30.32,10.0,SSE,3.5,-,N/A,,Overcast,150,2012-10-06 06:55:00
2:15 AM,37.4,32.9,84,30.32,10.0,Calm,Calm,-,N/A,,Overcast,0,2012-10-06 07:15:00
2:35 AM,37.6,33.1,84,30.32,10.0,Calm,Calm,-,N/A,,Overcast,0,2012-10-06 07:35:00
2:55 AM,37.6,33.3,84,30.31,10.0,Calm,Calm,-,N/A,,Overcast,0,2012-10-06 07:55:00
3:15 AM,37.4,33.3,85,30.31,10.0,Calm,Calm,-,N/A,,Overcast,0,2012-10-06 08:15:00
3:35 AM,37.4,33.4,86,30.30,10.0,Calm,Calm,-,N/A,,Overcast,0,2012-10-06 08:35:00
3:55 AM,37.4,33.8,87,30.30,10.0,Calm,Calm,-,N/A,,Overcast,0,2012-10-06 08:55:00
4:35 AM,36.7,33.8,89,30.29,10.0,NNE,5.8,-,N/A,,Light Drizzle,30,2012-10-06 09:35:00
4:55 AM,36.9,34.0,89,30.29,10.0,NE,5.8,-,N/A,,Overcast,40,2012-10-06 09:55:00
5:15 AM,36.7,34.0,90,30.30,10.0,NE,4.6,-,N/A,,Overcast,50,2012-10-06 10:15:00
5:35 AM,36.5,34.0,91,30.30,10.0,NE,4.6,-,N/A,,Overcast,40,2012-10-06 10:35:00
5:55 AM,36.5,34.0,91,30.30,10.0,NE,5.8,-,N/A,Rain,Light Rain,40,2012-10-06 10:55:00
6:15 AM,36.0,33.8,92,30.30,5.0,NE,5.8,-,N/A,Rain,Light Rain,40,2012-10-06 11:15:00
6:35 AM,35.6,33.8,93,30.30,5.0,ENE,6.9,-,N/A,Rain,Light Rain,60,2012-10-06 11:35:00
6:55 AM,34.9,33.1,93,30.30,5.0,ENE,5.8,-,N/A,Rain,Light Rain,60,2012-10-06 11:55:00
7:15 AM,34.7,32.9,93,30.30,4.0,East,4.6,-,N/A,Snow,Light Snow,80,2012-10-06 12:15:00
7:35 AM,34.2,32.5,94,30.30,3.0,East,4.6,-,N/A,Snow,Light Snow,90,2012-10-06 12:35:00
7:55 AM,34.2,32.5,94,30.30,4.0,East,5.8,-,N/A,Snow,Light Snow,90,2012-10-06 12:55:00
8:15 AM,34.0,32.4,94,30.30,2.0,East,6.9,-,N/A,Snow,Light Snow,80,2012-10-06 13:15:00
8:35 AM,33.8,32.2,94,30.31,1.5,East,8.1,-,N/A,Snow,Light Snow,80,2012-10-06 13:35:00
8:55 AM,33.8,32.4,94,30.31,2.0,East,8.1,-,N/A,Snow,Light Snow,90,2012-10-06 13:55:00
9:15 AM,34.0,32.5,94,30.31,2.0,East,10.4,-,N/A,Snow,Light Snow,100,2012-10-06 14:15:00
9:35 AM,34.7,32.9,93,30.31,2.5,East,11.5,-,N/A,Snow,Light Snow,90,2012-10-06 14:35:00
9:55 AM,34.2,32.4,93,30.31,2.0,East,11.5,-,N/A,Snow,Light Snow,90,2012-10-06 14:55:00
10:15 AM,33.8,32.0,93,30.32,1.5,East,12.7,16.1,N/A,Snow,Light Snow,90,2012-10-06 15:15:00
10:35 AM,34.0,32.2,93,30.33,2.5,East,10.4,-,N/A,Snow,Light Snow,90,2012-10-06 15:35:00
10:55 AM,34.2,32.4,93,30.34,2.0,East,10.4,-,N/A,Snow,Light Snow,90,2012-10-06 15:55:00
11:15 AM,33.8,32.0,93,30.34,2.0,East,9.2,-,N/A,Snow,Light Snow,80,2012-10-06 16:15:00
11:35 AM,33.8,32.0,93,30.34,1.0,East,9.2,-,N/A,Snow,Light Snow,80,2012-10-06 16:35:00
11:55 AM,33.8,32.0,93,30.34,0.8,East,9.2,-,N/A,Snow,Light Snow,80,2012-10-06 16:55:00
12:15 PM,33.8,32.2,94,30.34,1.0,East,12.7,-,N/A,Snow,Light Snow,90,2012-10-06 17:15:00
12:35 PM,34.0,32.4,94,30.35,1.5,East,12.7,-,N/A,Snow,Light Snow,80,2012-10-06 17:35:00
12:55 PM,34.9,33.1,93,30.35,7.0,East,13.8,-,N/A,Snow,Light Snow,90,2012-10-06 17:55:00
1:15 PM,34.7,32.4,91,30.35,5.0,East,15.0,-,N/A,Snow,Light Snow,90,2012-10-06 18:15:00
1:35 PM,34.9,32.4,91,30.34,5.0,East,16.1,-,N/A,Snow,Light Snow,90,2012-10-06 18:35:00
1:55 PM,34.5,32.0,90,30.34,3.0,East,13.8,-,N/A,Snow,Light Snow,100,2012-10-06 18:55:00
2:15 PM,33.8,32.0,93,30.33,1.5,East,13.8,-,N/A,Snow,Light Snow,90,2012-10-06 19:15:00
2:35 PM,34.2,32.0,92,30.32,0.8,East,12.7,16.1,N/A,Snow,Light Snow,90,2012-10-06 19:35:00
2:55 PM,34.7,32.9,93,30.33,4.0,East,10.4,-,N/A,Snow,Light Snow,90,2012-10-06 19:55:00
3:15 PM,35.6,33.3,91,30.31,5.0,East,12.7,-,N/A,Snow,Light Snow,80,2012-10-06 20:15:00
3:35 PM,35.6,32.7,89,30.33,10.0,East,11.5,-,N/A,,Overcast,80,2012-10-06 20:35:00
3:55 PM,34.7,32.0,90,30.34,4.0,ENE,10.4,-,N/A,Snow,Light Snow,70,2012-10-06 20:55:00
4:15 PM,34.7,32.0,90,30.34,2.5,ENE,9.2,-,N/A,Snow,Light Snow,60,2012-10-06 21:15:00
4:35 PM,34.0,32.0,92,30.34,1.2,ENE,10.4,-,N/A,Snow,Light Snow,60,2012-10-06 21:35:00
4:55 PM,34.0,32.2,93,30.34,1.2,ENE,9.2,-,N/A,Snow,Light Snow,70,2012-10-06 21:55:00
5:15 PM,35.1,33.3,93,30.34,7.0,ENE,9.2,-,N/A,Snow,Light Snow,70,2012-10-06 22:15:00
5:35 PM,35.1,32.7,91,30.34,7.0,East,6.9,-,N/A,Snow,Light Snow,90,2012-10-06 22:35:00
6:15 PM,35.2,32.5,90,30.34,10.0,ENE,8.1,-,N/A,,Overcast,70,2012-10-06 23:15:00
6:35 PM,34.9,32.0,89,30.34,4.0,ENE,5.8,-,N/A,Snow,Light Snow,60,2012-10-06 23:35:00
6:55 PM,34.9,32.0,89,30.35,10.0,NE,4.6,-,N/A,,Overcast,50,2012-10-06 23:55:00
7:15 PM,34.7,32.2,91,30.35,10.0,NE,5.8,-,N/A,,Overcast,40,2012-10-07 00:15:00
7:35 PM,34.5,32.2,91,30.35,10.0,NE,6.9,-,N/A,,Overcast,40,2012-10-07 00:35:00
7:55 PM,33.8,32.0,93,30.35,10.0,NNE,5.8,-,N/A,,Overcast,30,2012-10-07 00:55:00
8:15 PM,33.8,32.0,93,30.36,10.0,NNE,4.6,-,N/A,,Overcast,30,2012-10-07 01:15:00
8:35 PM,33.8,32.0,93,30.36,10.0,NE,3.5,-,N/A,,Overcast,40,2012-10-07 01:35:00
8:55 PM,33.8,32.0,93,30.36,10.0,Calm,Calm,-,N/A,,Overcast,0,2012-10-07 01:55:00
9:15 PM,33.3,31.8,94,30.36,10.0,NNE,3.5,-,N/A,,Overcast,30,2012-10-07 02:15:00
9:35 PM,33.3,32.0,95,30.36,10.0,Calm,Calm,-,N/A,,Overcast,0,2012-10-07 02:35:00
9:55 PM,33.3,32.0,95,30.35,10.0,Calm,Calm,-,N/A,,Overcast,0,2012-10-07 02:55:00
10:15 PM,33.3,32.0,95,30.35,10.0,Calm,Calm,-,N/A,,Overcast,0,2012-10-07 03:15:00
10:35 PM,33.4,32.0,94,30.35,10.0,Calm,Calm,-,N/A,,Overcast,0,2012-10-07 03:35:00
11:15 PM,33.6,32.0,94,30.34,10.0,Calm,Calm,-,N/A,,Overcast,0,2012-10-07 04:15:00
11:35 PM,33.4,32.0,94,30.34,10.0,Calm,Calm,-,N/A,,Overcast,0,2012-10-07 04:35:00
11:55 PM,33.6,32.0,94,30.33,10.0,Calm,Calm,-,N/A,,Overcast,0,2012-10-07 04:55:00